Regional Weather Roundup
Issued by NWS Upton, NY

Current Version | Previous Version | Text Only | Print | Product List | Glossary Off
Versions: 1 2 3 4 5 6 7 8 9 10 11 12 13 14 15 16 17 18 19 20 21 22 23 24 25 26 27 28 29 30 31 32 33 34 35 36 37 38 39 40 41 42 43 44 45 46 47 48 49 50
148 ASUS41 KOKX 211708 RWROKX REGIONAL WEATHER ROUNDUP NATIONAL WEATHER SERVICE NEW YORK NY 100 PM EDT THU MAY 21 2015 NOTE: "FAIR" INDICATES FEW OR NO CLOUDS BELOW 12,000 FEET WITH NO SIGNIFICANT WEATHER AND/OR OBSTRUCTIONS TO VISIBILITY. NYZ071-072-176-178-NJZ106-104-211800- NEW YORK CITY METRO AREA CITY SKY/WX TMP DP RH WIND PRES REMARKS CENTRAL PARK CLOUDY 61 34 36 VRB6 30.00F LAGUARDIA APRT CLOUDY 61 33 35 SW10 29.97F KENNEDY INTL PTSUNNY 60 34 37 SW10 30.00F NEWARK/LIBERTY CLOUDY 60 32 34 S10 29.98F BRNX BOT. GARD N/A 61 34 36 W3 29.99F TETERBORO CLOUDY 61 32 33 S7 29.96F $$ NYZ177-179-078>081-211800- LONG ISLAND NEW YORK CITY SKY/WX TMP DP RH WIND PRES REMARKS FARMINGDALE PTSUNNY 61 35 37 VRB7 29.98F ISLIP CLOUDY 62 33 33 S10 29.96F SHIRLEY CLOUDY 61 29 29 S10 29.98F WESTHAMPTON CLOUDY 60 33 36 S12 30.00S MONTAUK POINT N/A 61 37 41 S6 29.99F $$ NYZ052-065-067-211800- HUDSON VALLEY CITY SKY/WX TMP DP RH WIND PRES REMARKS WHITE PLAINS PTSUNNY 60 35 39 VRB7 29.96F NEWBURGH PTSUNNY 59 39 47 W9 29.97F MONTGOMERY CLOUDY 62 38 40 SW9 29.95F POUGHKEEPSIE PTSUNNY 63 35 35 W8 29.95F ALBANY MOSUNNY 63 36 36 S9 29.93F $$ NJZ001-105-106-008-010-013-015-019>022-104-211800- NEW JERSEY CITY SKY/WX TMP DP RH WIND PRES REMARKS NEWARK/LIBERTY CLOUDY 60 32 34 S10 29.98F TETERBORO CLOUDY 61 32 33 S7 29.96F CALDWELL CLOUDY 60 30 32 S8 29.97F MORRISTOWN CLOUDY 63 36 36 W9 29.98F SOMERVILLE CLOUDY 58 36 43 S7 29.97F SUSSEX CLOUDY 60 36 40 VRB6 29.97F ANDOVER N/A 58 33 39 VRB6 29.97F TRENTON LGT RAIN 56 43 61 S8 30.00F MILLVILLE LGT RAIN 56 50 80 W3 30.00F ATLANTIC CITY LGT RAIN 58 47 66 S7 30.00F WRIGHTSTOWN LGT RAIN 55 46 71 VRB5 29.98S TOMS RIVER CLOUDY 57 46 67 SE5 30.01S BELMAR CLOUDY 55 36 47 S6 30.00F $$ PAZ047>061-062-071-211800- EASTERN PENNSYLVANIA CITY SKY/WX TMP DP RH WIND PRES REMARKS PHILADELPHIA LGT RAIN 56 46 69 S5 30.01F ALLENTOWN CLOUDY 59 34 39 SE7 29.99S SCRANTON CLOUDY 60 32 34 W9 29.95F $$ CTZ002-004>006-009-010-012-RIZ004-006-007-MAZ004-011-015-211800- SOUTHERN NEW ENGLAND IN CT CITY SKY/WX TMP DP RH WIND PRES REMARKS BRADLEY INTL PTSUNNY 64 33 31 S10 29.93F HARTFORD MOSUNNY 63 38 39 VRB7 29.95F DANBURY PTSUNNY 60 35 39 W7 29.97F WTRBRY/OXFORD PTSUNNY 57 34 41 VRB6 29.96F BRIDGEPORT CLOUDY 59 41 51 S10 29.97F MERIDEN PTSUNNY 62 35 36 S9 29.95F NEW HAVEN CLOUDY 60 41 49 S9 29.97F CHESTER FAIR 59 34 38 S9 29.97F GROTON PTSUNNY 58 38 47 SW10 29.97F WILLIMANTIC PTSUNNY 65 29 25 SW10 29.94F IN RI CITY SKY/WX TMP DP RH WIND PRES REMARKS PROVIDENCE CLOUDY 65 32 29 SW14 29.94F BLOCK ISLAND PTSUNNY 57 37 47 SW10 29.98F WESTERLY PTSUNNY 62 35 36 SW13G18 29.98F IN MA CITY SKY/WX TMP DP RH WIND PRES REMARKS BOSTON PTSUNNY 61 36 39 SE9G16 29.92F WORCESTER CLOUDY 61 29 29 S9 29.92F WESTFIELD CLOUDY 62 33 33 S7 29.93F PROVINCETOWN MOSUNNY 63 34 34 S13 29.95S NANTUCKET CLOUDY 57 42 57 SW8 29.97F $$ ANZ330-335-338-340-345-350-353-355-211800- COASTAL MARINE OBSERVATIONS STATION/POSITION TIME SKY/WX TEMP WIND PRES VSBY WAVE AIR SEA DIR/SP/G HT/PER (UTC) (F) (DEG/KT/KT) (MB) (MI) (FT/S) NY HARB ENTRANCE 1650 55 56 190/ 4/ 6 1015.6 1/ 9 4S FIRE IS 1603 54 N/A 1/ 8 20S FIRE ISLAND 1650 54 55 200/ 2/ 2 1015.9 1/ 8 GREAT SOUTH BAY 1600 56 64 200/ 6/ 8 N/A 23SW MTP 1650 53 54 220/ 6/ 6 1015.3 1/ 9 HUDSON CANYON NOT AVBL KINGS POINT 1600 58 53 10/ 3/ 4 1014.9 CENTRAL LI SOUND 1615 53 52 260/ 6/ 8 N/A EASTERN LI SOUND 1600 53 260/ 6/ 6 N/A ROBBINS REEF 1600 57 180/ 8/ 10 1014.5 $$ >>>>>>>>>>>>>>>>>>>>>>>>>>>> KEY <<<<<<<<<<<<<<<<<<<<<<<<<<< > < > SKY/WX - SKY CONDITION/PRESENT WEATHER < > TMP - TEMPERATURE IN FAHRENHEIT < > DP - DEWPOINT IN FAHRENHEIT < > RH - RELATIVE HUMIDITY IN PERCENT < > WIND - DIRECTION AND SPEED IN MPH < > PRES - MEAN SEA LEVEL PRESSURE IN INCHES OF HG < > WCI - WIND CHILL INDEX < > VSB - VISIBILITY IN MILES < > HX - HEAT INDEX < > TC - TEMPERATURE IN CELSIUS < > VRB - VARIABLE WIND DIRECTION < > < >>>>>>>>>>>>>>>>>>>>>>>>>>>> KEY <<<<<<<<<<<<<<<<<<<<<<<<<<<

USA.gov is the U.S. government's official web portal to all federal, state and local government web resources and services.